Regional Weather Roundup
Issued by NWS Newport/Morehead, NC

Current Version | Previous Version | Graphics & Text | Print | Product List | Glossary On
Versions: 1 2 3 4 5 6 7 8 9 10 11 12 13 14 15 16 17 18 19 20 21 22 23 24 25 26 27 28 29 30 31 32 33 34 35 36 37 38 39 40 41 42 43 44 45 46 47 48 49 50
000 ASUS42 KMHX 272214 RWRMHX WEATHER ROUNDUP FOR EASTERN NORTH CAROLINA NATIONAL WEATHER SERVICE NEWPORT/MOREHEAD CITY NC 600 PM EDT TUE JUN 27 2017 NOTE: "FAIR" INDICATES FEW OR NO CLOUDS BELOW 12,000 FEET WITH NO SIGNIFICANT WEATHER AND/OR OBSTRUCTIONS TO VISIBILITY NCZ015>017-031-032-045>047-102-103-272300- NORTH COAST CITY SKY/WX TMP DP RH WIND PRES REMARKS EDENTON SUNNY 84 60 44 CALM 29.99F ELIZABETH CITY MOSUNNY 81 63 54 W8 29.97F KITTY HAWK CLOUDY 82 61 49 S3 29.97F MANTEO PTSUNNY 80 62 54 SW7 29.98F $$ NCZ045>047-081-094-103-104-272300- CENTRAL COAST CITY SKY/WX TMP DP RH WIND PRES REMARKS FRISCO NOT AVBL $$ NCZ095-097-098-100-101-272300- SOUTHERN COAST CITY SKY/WX TMP DP RH WIND PRES REMARKS BEAUFORT PTSUNNY 81 65 58 S7 30.00S CEDAR ISLAND NOT AVBL JACKSONVILLE NOT AVBL PINEY ISLAND MOCLDY N/A N/A N/A S9 29.99F WILMINGTON PTSUNNY 83 66 56 S8 30.01R $$ NCZ011>013-027>030-043-044-078>080-089-090>093-098-272300- COASTAL PLAIN CITY SKY/WX TMP DP RH WIND PRES REMARKS AHOSKIE N/A 78 62 58 CALM 30.01S CLINTON MOSUNNY 83 60 45 N5 30.02F ELIZABETHTOWN NOT AVBL GOLDSBORO CLOUDY 83 56 40 NW6 29.99F GREENVILLE SUNNY 82 55 39 W6 30.01F HAVELOCK PTSUNNY 83 63 50 S7 30.01S KENANSVILLE MOSUNNY 82 61 47 CALM 30.01F KINSTON MOSUNNY 82 57 42 NW3 30.01F NEW BERN PTSUNNY 83 64 52 NW6 30.00F RICHLANDS MOSUNNY 84 65 52 NW3 30.00F ROCKY MOUNT CLOUDY 82 57 42 NW7 30.01F WASHINGTON SUNNY N/A N/A N/A W6 30.00F WHITEVILLE MOSUNNY 82 67 60 CALM 30.00F $$ AMZ130-135-150-152-154-156-158-170-250-252-270-ANZ085-086-088-633-658-670-272300- MARINE OBSERVATIONS STATION/POSITION TIME TEMP WIND PRES WAVE SWELL AIR SEA DIR/SP/G HT/PER HT/PER (UTC) (F) (DEG/KT/KT) (MB) (FT/S) (FT/S) CHESAPEAKE LIGHT NOT AVBL 64 E VA BEACH 2150 76 79 180/ 4/ 4 1015.8 1/ 9 2/ 9 DUCK 2148 80 76 120/ 6/ 7 1014.6 2 E DUCK NOT AVBL OREGON INLET 2148 120/ 7/ 12 1015.1 13E OREGON INLT 2148 76 N/A 1/ 8 2/ 8 HATTERAS CG 2148 81 79 180/ 6/ 8 1015.5 DIAMOND BUOY 2150 80 83 210/ 2/ 4 1015.8 2/ 6 2/ 6 CAPE LOOKOUT 2200 80 190/ 5/ 6 1015.6 BEAUFORT LAB 2148 80 80 200/ 9/ 10 1015.2 30 SE NEW RVR IN 2108 81 82 210/ 4/ 6 1016.6 30 SE NEW RVR IN 2143 84 N/A 2/ 7 27 SE WRIGHTSVLE 2108 81 82 160/ 4/ 8 1016.3 5 SE WRIGHTSVLE 2108 81 80 170/ 6/ 12 1016.0 225 S CAPE HAT 2150 77 80 240/ 8/ 12 1016.3 3/ 6 3/ 6 41 SE CHARLESTON 2200 80 81 60/ 8/ 10 1016.0 $$

USA.gov is the U.S. government's official web portal to all federal, state and local government web resources and services.